Retour au catalogue

TIANMU-1 06

ActifScienceSSO
NORAD 55976·PAYLOAD·🇨🇳 China

Lancé Mar 22, 2023 depuis Jiuquan Satellite Launch Center

Loading…

Prochains Passages (prochaines 24 heures)

TLE

FraisSource: Space-Track

Époque: Sep 14, 2026, 23:11 UTC

1 55976U 23039D   26257.96663012  .00016573  00000-0  29543-3 0  9992
2 55976  97.5253  75.9530 0003520 124.8526 235.3057 15.50170267194746

Suivez TIANMU-1 06 en temps réel avec AllMySat

Download on the App Store